Theta_e
298 296 296 297 298 299 299 300 300 300 301 302 303 305 306 307 307 310 309 309 309 309 309 305 305 307 307 304 305 302 300 300 294 293 295 296 295 295 295 296 296 296 297
297 297 297 297 298 298 299 299 300 300 301 302 303 305 306 309 307 309 306 308 307 308 309 308 305 307 304 304 303 300 300 299 296 292 293 291 292 293 293 292 293 294 296
297 297 296 297 297 298 299 299 300 300 301 302 302 303 305 309 308 309 305 305 308 309 308 307 305 304 303 302 302 300 299 298 297 294 291 291 290 291 289 289 288 289 290
296 296 296 296 297 298 298 299 299 300 300 301 302 302 304 308 308 308 305 305 307 308 308 307 304 305 302 301 300 299 298 297 295 293 290 289 288 289 288 287 285 286 284
296 296 296 296 297 297 297 298 298 299 300 301 301 302 303 305 307 306 305 304 304 306 307 306 304 299 297 300 300 298 298 296 294 291 289 288 286 286 286 285 285 285 285
296 295 296 296 296 297 297 297 298 298 299 301 301 301 301 303 299 300 303 304 304 303 303 302 302 292 297 296 297 297 299 296 294 293 292 289 288 288 286 286 284 284 284
295 294 296 296 296 296 297 297 297 297 299 299 300 300 300 302 295 297 296 304 304 304 302 300 297 297 295 299 295 296 295 296 297 297 294 293 289 289 288 286 285 285 284
294 294 295 294 294 295 295 296 296 297 297 298 299 300 300 301 296 296 294 303 305 305 303 301 298 297 297 297 296 297 296 296 296 297 297 295 294 292 291 289 287 284 284
293 294 294 295 294 294 294 295 296 296 296 297 299 300 299 299 293 294 297 302 302 303 303 302 300 297 294 295 296 296 293 292 295 296 296 295 294 293 291 287 285 285 282
294 294 294 293 294 294 294 294 293 295 294 295 296 299 294 297 293 294 297 298 299 299 300 300 289 297 293 294 297 292 290 292 291 291 291 292 292 291 290 292 288 286 283
290 290 291 293 294 294 294 292 292 291 291 291 291 291 294 295 294 295 296 296 296 290 290 290 290 294 294 294 296 295 294 290 290 289 288 288 288 289 289 290 289 290 286
290 289 289 289 291 292 290 289 289 290 290 289 289 288 288 291 291 295 295 295 296 292 290 289 290 293 294 294 294 294 293 290 289 288 287 287 287 287 287 288 287 286 285
288 288 287 287 287 287 288 288 289 289 290 288 288 288 287 285 287 293 294 294 293 288 287 290 292 293 293 293 294 293 288 290 289 288 288 288 288 288 287 286 286 286 285
287 287 287 287 286 286 288 288 289 288 288 287 287 287 286 285 286 286 286 288 288 288 288 288 289 290 291 290 287 291 289 290 290 290 290 289 286 286 286 286 285 285 285
287 287 287 287 287 287 287 288 288 287 290 288 287 287 287 286 286 289 288 286 286 287 286 286 286 286 286 286 286 287 287 287 288 288 287 286 286 286 286 286 285 285 285
286 286 287 287 287 287 287 287 289 290 290 290 290 288 286 289 291 292 292 292 291 290 286 286 285 285 286 286 286 286 285 286 286 286 286 286 286 286 286 285 286 285 285
287 286 287 287 287 286 286 286 285 287 290 290 290 290 290 290 290 292 292 291 291 290 286 285 285 285 285 286 286 286 286 286 287 286 287 286 286 286 285 285 285 285 285
286 286 287 287 286 286 286 286 286 285 284 284 287 288 289 290 290 291 291 289 286 287 285 286 285 285 285 285 285 285 285 285 286 286 286 286 286 286 285 285 285 285 285
286 286 286 286 286 286 286 286 286 285 284 283 283 285 286 289 289 289 289 286 286 285 285 285 285 285 285 285 285 285 285 285 285 285 285 286 285 286 286 286 286 285 285
285 285 285 284 284 284 284 284 284 284 283 282 281 281 283 285 284 284 285 285 285 285 285 285 285 285 285 285 285 285 285 285 285 285 285 285 285 285 286 285 285 285 285
283 283 283 283 282 282 282 281 282 282 281 281 281 282 284 283 282 283 283 283 283 284 284 284 285 285 285 285 285 285 285 285 285 285 285 285 285 285 285 285 285 285 285
283 282 282 281 281 280 280 280 280 280 280 280 279 281 283 281 280 280 280 280 281 281 282 284 284 284 284 284 284 285 285 285 285 285 285 285 285 285 285 285 285 285 285
282 281 281 280 279 278 278 278 278 277 277 278 276 275 275 274 272 273 274 274 274 275 276 277 279 279 278 280 282 284 283 283 284 285 285 285 285 285 285 285 285 284 284
279 278 277 277 276 274 273 272 270 270 269 268 267 266 267 265 265 265 264 263 265 262 265 266 267 268 270 272 277 276 276 277 280 282 284 284 284 285 285 285 285 285 285
276 274 273 272 272 270 268 267 267 266 265 266 264 264 261 264 263 262 261 261 261 262 262 263 264 263 264 266 267 266 266 269 270 273 277 280 283 284 284 284 285 285 285
272 271 270 269 268 268 267 266 264 264 264 263 262 260 261 261 260 260 258 259 258 259 258 259 260 261 262 263 262 266 266 270 267 268 270 275 278 281 283 284 284 284 284
Wind_Speed
11 8 9 7 7 7 6 6 6 6 6 6 5 5 4 5 4 4 4 4 5 5 6 6 5 5 4 4 4 5 6 6 10 4 2 3 5 7 7 8 7 8 8
11 10 9 8 7 7 6 7 7 6 6 6 5 5 5 4 4 4 5 5 5 4 6 8 6 5 5 5 5 6 7 6 9 12 3 2 5 5 6 9 7 7 7
12 11 9 9 9 8 7 7 7 7 6 6 6 5 5 4 6 5 5 6 5 4 5 7 7 6 7 5 6 7 7 8 7 6 5 2 2 1 6 6 6 7 5
11 12 11 11 10 9 7 7 7 6 7 6 6 5 5 5 4 6 5 5 5 5 5 5 6 6 7 8 7 8 9 9 8 7 5 3 2 2 3 4 4 2 3
11 11 11 9 9 8 8 7 7 7 6 6 6 5 5 5 4 6 5 5 5 4 5 5 6 6 9 9 9 10 11 8 8 7 5 3 2 3 4 3 3 2 2
12 12 10 10 10 9 8 8 7 7 6 6 6 6 6 3 7 8 7 5 6 5 5 5 5 6 9 12 9 14 16 15 11 9 7 8 6 5 3 6 5 3 3
11 9 10 10 10 9 9 9 8 8 6 6 6 6 6 5 7 6 8 4 5 5 6 5 4 3 6 7 9 12 10 11 13 14 14 12 9 11 8 8 5 3 2
10 10 10 9 9 9 9 9 7 7 7 6 6 6 5 5 9 7 7 4 4 5 6 6 6 5 5 6 7 8 6 7 7 6 9 8 4 11 9 5 5 5 3
12 11 11 12 11 10 10 9 7 6 5 5 5 6 6 5 9 9 6 4 4 4 5 6 6 6 9 11 7 8 7 5 5 6 6 11 14 16 13 9 7 6 2
14 13 11 10 11 11 10 9 5 5 6 5 5 6 7 6 7 10 5 3 4 4 4 5 7 7 10 13 9 8 8 8 7 4 5 10 15 16 22 13 9 10 3
9 10 11 12 12 10 9 5 7 6 6 5 6 4 6 5 6 8 8 3 3 2 3 3 3 9 12 13 10 9 10 8 6 6 5 5 5 7 8 8 9 8 6
12 11 10 9 7 7 9 6 7 8 7 6 6 3 2 3 3 7 9 6 3 4 4 2 3 8 10 13 11 7 13 10 6 5 6 5 6 7 8 8 5 2 1
12 11 10 9 7 7 9 8 6 7 6 6 5 4 2 1 1 4 6 7 6 3 2 4 5 8 9 9 12 12 11 6 7 7 8 7 7 5 5 4 4 4 2
13 11 9 10 9 8 5 5 7 6 6 5 5 4 2 1 1 1 1 2 4 3 2 1 2 3 4 3 4 9 6 7 8 9 8 4 4 5 6 5 6 6 4
13 11 10 9 10 9 6 4 5 3 6 6 4 4 5 3 3 4 4 3 3 3 4 2 2 1 2 1 1 3 3 4 6 4 4 5 5 5 5 5 4 5 6
14 11 10 9 9 9 9 7 10 10 11 10 10 6 1 7 7 5 5 6 7 10 3 2 2 1 2 3 3 3 2 4 2 2 2 4 5 6 6 5 4 6 7
16 14 11 11 10 10 10 10 10 9 14 13 12 10 8 8 6 5 6 6 8 3 3 1 2 2 2 2 3 3 3 3 4 4 4 5 4 4 6 5 6 5 6
13 16 11 10 10 9 9 9 8 8 8 5 9 6 9 8 6 6 9 5 3 4 3 3 2 1 1 2 2 1 1 2 3 3 3 4 5 5 5 5 6 7 6
13 10 10 10 9 11 9 9 8 8 8 7 4 7 6 13 12 11 9 3 4 4 3 4 3 2 2 2 2 2 1 1 1 2 3 3 3 4 4 4 5 7 6
11 16 12 10 11 10 9 9 9 8 8 5 4 2 2 4 5 5 5 5 5 4 3 4 4 3 3 3 3 2 2 2 1 0 1 2 2 3 3 4 5 5 6
11 12 16 11 10 9 9 8 8 7 7 6 5 3 8 6 5 5 5 5 5 4 4 4 4 4 3 4 3 3 3 2 2 1 0 1 1 2 2 2 3 4 4
11 13 12 12 10 10 9 9 8 8 8 8 5 6 10 4 5 5 5 5 5 5 5 4 4 4 4 4 3 3 4 4 3 3 2 1 0 1 2 2 3 3 4
12 14 13 11 11 12 10 8 8 7 7 7 6 5 5 5 5 5 5 4 4 5 5 4 4 4 5 5 5 5 4 4 3 2 2 2 1 2 2 3 3 3 4
13 13 13 11 9 9 8 8 7 8 7 6 5 4 5 4 5 5 4 3 4 4 4 4 4 5 4 4 4 5 5 5 5 5 5 2 2 2 2 3 3 4 4
11 12 12 11 10 9 9 8 7 6 6 6 5 4 3 4 5 4 4 3 4 4 4 4 3 4 5 7 7 6 6 8 6 6 4 5 5 4 4 4 4 4 5
11 12 10 10 10 9 8 9 7 7 7 6 5 4 4 4 3 4 3 4 4 2 3 2 3 5 6 3 4 6 6 7 5 6 5 6 5 5 4 5 6 5 6
Wind_Direction
164 162 156 157 154 148 145 148 151 143 151 157 162 147 138 138 122 124 122 137 127 132 122 114 116 127 121 94 82 75 76 103 119 97 81 75 63 84 71 62 54 67 64
163 161 162 153 147 148 151 155 150 155 157 161 159 150 148 151 132 133 139 156 152 153 132 134 136 134 113 110 98 98 105 104 128 135 121 80 61 63 81 85 75 60 68
161 160 157 158 155 158 159 159 153 152 157 159 155 158 158 154 151 139 148 154 158 148 143 140 152 150 139 128 118 116 117 124 133 137 120 97 94 99 81 69 65 72 57
162 164 165 166 165 161 156 157 153 159 154 160 162 165 166 158 147 139 150 146 159 149 150 144 156 158 145 137 130 135 135 134 130 123 99 98 101 74 81 124 97 56 60
166 170 173 164 159 154 155 159 152 156 161 163 158 159 153 160 155 150 157 150 152 144 145 148 154 150 150 155 147 151 147 141 143 145 141 131 140 167 172 149 106 100 63
172 176 170 163 161 161 157 159 153 158 161 159 165 161 165 165 164 171 151 157 155 157 145 144 143 150 154 159 154 164 168 161 162 162 171 182 178 164 141 155 137 145 194
175 171 168 165 164 163 158 156 163 164 156 163 165 167 174 170 160 169 142 165 160 163 159 152 149 170 162 162 166 171 177 188 183 177 180 184 170 179 156 158 169 139 151
170 167 165 162 162 159 157 163 160 164 168 164 172 171 165 178 161 158 165 181 187 180 168 165 165 169 183 158 158 173 185 191 195 192 190 186 167 158 170 148 132 105 74
170 169 169 170 165 165 168 166 163 153 166 168 166 165 161 163 152 157 157 172 190 187 174 169 168 175 178 162 165 172 164 192 196 185 151 133 142 155 150 126 156 153 168
174 170 164 161 165 173 171 164 155 156 158 151 164 167 160 141 162 158 159 162 180 180 164 168 183 182 182 178 174 168 181 197 171 171 143 149 154 168 170 184 161 182 143
154 150 154 161 167 171 161 154 148 141 136 139 133 127 131 139 167 163 152 183 189 168 174 192 203 195 188 190 188 185 197 145 163 146 140 143 154 175 191 199 183 187 180
154 151 151 147 145 149 150 139 137 138 137 139 136 127 118 162 165 171 166 191 179 173 206 220 218 194 195 197 190 190 151 138 144 154 155 175 182 191 195 199 186 170 144
147 150 147 135 136 135 142 140 130 132 147 146 148 159 163 189 181 206 188 192 206 205 173 220 212 212 210 200 204 172 154 157 165 176 188 198 203 177 140 143 148 143 125
138 142 139 136 125 112 113 128 144 144 148 154 158 162 156 136 144 176 169 182 211 185 193 192 207 195 181 147 135 165 175 178 181 196 204 187 129 154 174 170 184 182 196
141 139 137 134 132 126 113 142 130 113 155 155 156 150 149 160 200 171 168 169 168 157 114 87 85 92 110 106 63 175 171 165 191 181 167 169 171 171 180 169 166 174 206
141 145 147 139 132 132 126 117 91 107 118 113 119 119 97 126 144 143 140 151 151 149 86 125 139 194 161 156 163 158 155 184 191 147 152 173 183 187 182 175 177 197 211
146 147 143 138 143 137 137 126 123 89 91 95 100 116 112 119 100 111 110 124 145 113 104 128 123 151 172 156 161 166 180 190 153 178 177 182 163 171 173 186 193 199 217
140 142 139 145 136 136 126 127 128 126 120 102 68 90 90 104 114 105 114 89 59 41 62 78 78 73 71 103 117 158 174 169 167 173 187 186 185 178 182 198 199 206 210
132 132 136 131 131 118 122 122 116 116 115 107 92 67 74 84 82 73 77 82 89 70 60 71 57 43 53 59 70 76 49 149 167 160 170 178 179 192 203 198 202 205 202
123 132 130 129 114 117 121 120 121 124 115 116 110 116 87 81 84 75 64 69 72 66 55 66 51 46 44 46 55 54 59 26 76 254 153 173 186 192 210 204 205 208 213
134 124 120 110 113 113 120 121 115 115 114 109 97 68 102 102 100 89 84 73 72 66 56 63 57 54 44 45 34 44 53 28 16 7 308 189 188 208 213 212 222 222 224
135 119 121 121 122 126 121 118 127 129 130 130 109 108 106 73 81 89 79 64 58 47 32 41 52 43 32 43 35 31 35 34 21 5 348 346 287 260 236 234 229 236 238
132 118 119 121 121 121 120 124 127 123 123 114 107 98 86 86 78 68 70 56 50 44 27 30 37 37 23 16 9 24 32 23 359 345 348 340 301 253 237 251 246 246 242
112 121 122 119 118 114 113 113 109 105 108 102 99 96 100 98 95 87 78 60 54 33 36 42 44 40 20 14 17 29 22 2 347 354 341 321 310 301 264 249 245 248 255
125 120 119 124 125 120 120 116 111 108 108 110 107 96 84 98 94 89 86 74 62 56 32 26 28 22 24 16 22 16 360 354 341 342 336 330 305 288 273 266 263 263 259
119 114 119 121 117 121 122 120 118 117 118 117 112 109 113 105 108 104 93 80 79 57 30 28 13 23 16 12 356 358 350 337 333 350 352 326 318 308 283 271 264 261 265